Other Public Products
Issued by NWS Grand Forks, ND

Home | Current Version | Previous Version | Graphics & Text | Print | Product List | Glossary On
Versions: 1 2 3 4 5 6 7 8 9 10 11 12 13 14 15 16 17 18 19 20 21 22 23 24 25 26 27 28 29 30 31 32 33 34 35 36 37 38 39 40 41 42 43 44 45 46 47 48 49 50
000
FPUS83 KFGF 172210
OPUFGF
PRAIRIE TO PINES WEATHER ROUNDUP
NATIONAL WEATHER SERVICE EASTERN NORTH DAKOTA/GRAND FORKS ND
500 PM CDT TUE OCT 17 2017

 **SATELLITE DATA USED TO AUGMENT SKY COVER AT AUTOMATED STATIONS**
 *****  WEATHER ACROSS EASTERN NORTH DAKOTA  *****

CITY           SKY/WX    TMP DP  RH WIND       PRES   REMARKS
GRAND FORKS    FAIR      79  29  16 SW15G24   29.68F
GRAND FORKS AF FAIR      77  30  18 SW16      29.68F
GRAND CITY NWS NOT AVBL
BUXTON           N/A     78  41  26 S17         N/A
DEVILS LAKE    FAIR      71  35  26 SW20G25   29.69F
FARGO          FAIR      75  40  28 SW15      29.76F
WAHPETON ARPT  NOT AVBL
$$

 *****  WEATHER ACROSS CENTRAL AND WESTERN NORTH DAKOTA  *****

CITY           SKY/WX    TMP DP  RH WIND       PRES   REMARKS
JAMESTOWN      FAIR      76  27  16 SW15G25   29.74F
BISMARCK       FAIR      80  25  13 SW14G23   29.74F
MINOT          FAIR      76  29  17 SW20G25   29.64F
MINOT AFB      FAIR      75  30  19 W17G24    29.61F
GARRISON         N/A     75  33  21 SW16      29.69F
WILLISTON      FAIR      77  26  15 SW18G31   29.63F
DICKINSON      FAIR      75  22  13 W25G31    29.74F
HETTINGER      FAIR      76  20  12 SW20      29.82F
$$

 *****  OTHER OBSERVATIONS NORTHEAST NORTH DAKOTA  *****

CITY           SKY/WX    TMP DP  RH WIND       PRES   REMARKS
WALHALLA       FAIR     N/A N/A N/A SW13G21   29.63F
LANGDON        FAIR      73  32  21 SW21G29   29.66F
CAVALIER       FAIR      75  39  27 SW12G26   29.64F
GRAFTON        FAIR      75  32  20 SW15G22   29.67F
CANDO          FAIR      73  32  21 SW21      29.67F
FORT TOTTEN      N/A     75  29  18 SW12      29.95S
ROLLA          FAIR      72  30  21 SW25      29.63F
RUGBY          FAIR      73  32  21 SW16G24   29.65F
 ***** THE ABOVE OBSERVATIONS ARE NON NWS ARE NOT QUALITY
        CONTROLLED AND MAY MIS-REPORT RAIN FOR SNOW...
$$

 *****  OTHER OBSERVATIONS SOUTHEAST NORTH DAKOTA *****

CITY           SKY/WX    TMP DP  RH WIND       PRES   REMARKS
COOPERSTOWN    FAIR      75  27  16 SW17      29.74F
VALLEY CITY    FAIR      75  34  22 SW15G21   29.77F
OAKES          NOT AVBL
GWINNER        CLEAR     77  39  25 SW14G20   29.79F
SHEYENNE NWR     N/A     75  41  29 SW13      29.95S
BUFFALO          N/A     76  35  22 SW17        N/A
WYNDMERE       NOT AVBL
 ***** THE ABOVE OBSERVATIONS ARE NON NWS ARE NOT QUALITY
       CONTROLLED AND MAY MIS-REPORT RAIN FOR SNOW...
$$

  *****  WEATHER ACROSS NORTHERN MINNESOTA  *****

CITY           SKY/WX    TMP DP  RH WIND       PRES   REMARKS
FLAG ISLAND    FAIR      57  46  67 S10       29.67F
WARROAD        FAIR      72  43  35 S7        29.69F
ROSEAU         FAIR      72  39  30 S14       29.69F
HALLOCK        FAIR      75  28  17 SW18      29.65F
THF RVR FALLS  FAIR      71  41  33 S20       29.72F
HALSTAD        NOT AVBL
FOSSTON        FAIR      72  36  26 S21G26    29.77F
BAUDETTE       FAIR      70  37  29 S13G24    29.73F
WASKISH        PTSUNNY   72  37  28 S9        29.76F
CROOKSTON      FAIR      75  37  25 SW20G26   29.70F
$$
  *****  WEATHER ACROSS CENTRAL AND WEST MINNESOTA  *****

CITY           SKY/WX    TMP DP  RH WIND       PRES   REMARKS
BEMIDJI        FAIR      69  36  30 S12G22    29.79F
PARK RAPIDS    FAIR      69  40  34 S12       29.83F
WADENA         FAIR      70  43  37 S10       29.85F
DETROIT LAKES  FAIR      70  39  32 S10       29.82F
MOORHEAD       FAIR      75  37  25 SW15      29.78F
FERGUS FALLS   FAIR      73  43  33 SW13      29.82F
ELBOW LAKE     FAIR      72  41  32 SW10      29.85F
MORRIS MN      FAIR      75  43  31 SW8       29.86F
STAPLES        FAIR      68  36  30 S8        29.87F
WHEATON        FAIR      75  34  22 S12       29.84F
$$
  *****  WEATHER ELSEWHERE ACROSS MINNESOTA  *****

CITY           SKY/WX    TMP DP  RH WIND       PRES   REMARKS
DULUTH         FAIR      66  40  38 SW8       29.89S
INTRNTL FALLS  FAIR      69  36  29 S9G18     29.77F
ELY            FAIR      68  30  24 SW8       29.85F
CLOQUET        FAIR      68  36  30 SW3       29.88F
BRAINERD       FAIR      69  39  33 S7        29.88F
HIBBING        FAIR      67  34  29 VRB7      29.86F
ALEXANDRIA     FAIR      72  41  32 SW10      29.88F
SAINT CLOUD    FAIR      72  38  29 SW12      29.90F
MINNEAPOLIS    FAIR      73  42  32 SW7       29.93S
$$

  *****  WEATHER ACROSS SOUTH DAKOTA  *****

CITY           SKY/WX    TMP DP  RH WIND       PRES   REMARKS
SIOUX FALLS    FAIR      77  42  28 S8        29.93F
BROOKINGS      FAIR      75  38  26 SW13      29.91F
WATERTOWN      FAIR      72  42  34 SW14      29.88F
HURON          FAIR      77  42  28 SW10      29.87F
SISSETON         N/A     75  42  30 SW14      29.82F
ABERDEEN       FAIR      79  36  21 SW10      29.83F
MITCHELL       FAIR      79  37  22 S9        29.90F
PIERRE         FAIR      78  37  22 SE10      29.84F
MOBRIDGE       FAIR      82  29  14 SW15      29.78F
RAPID CITY     FAIR      77  24  14 SE14      29.87F
$$

  *****  SOME WEATHER IN NEARBY STATES *****

CITY           SKY/WX    TMP DP  RH WIND       PRES   REMARKS
GLASGOW MT     FAIR      78  20  11 W22G33    29.59F
GREAT FALLS MT FAIR      73  20  13 SW29G47   29.67F
CHEYENNE WY    FAIR      71  11  10 W13G22    30.13F
SCOTTSBLUFF NE FAIR      78  14   9 W12       29.99F
OMAHA NE       FAIR      72  45  37 S9        30.01S
DES MOINES IA  FAIR      72  43  35 S10       30.02F
DAVENPORT IA   FAIR      69  42  37 S14       30.11F
CHICAGO IL     FAIR      69  39  33 SW13G23   30.11F
EAU CLAIRE WI  FAIR      70  43  37 SW9       29.95F
LA CROSSE WI   FAIR      71  46  40 S9        29.98F
$$

  *****  SOME NATIONAL WEATHER *****

CITY           SKY/WX    TMP DP  RH WIND       PRES   REMARKS
LA GUARDIA NY  FAIR      58  35  42 S8        30.24S
RALEIGH NC     FAIR      61  37  41 NE7       30.29S
ATLANTA GA     FAIR      67  40  37 NE8       30.24F
NEW ORLEANS LA FAIR      74  58  57 NE6       30.13F
OKLAHOMA CITY  FAIR      72  42  34 S10       30.13F
ALBUQUERQUE NM PTSUNNY   74  23  15 VRB5      30.22F
SALT LAKE CITY PTSUNNY   70  27  20 NW6       30.15F
LOS ANGELES CA FAIR      83  48  29 W12       29.92F
BOISE ID       FAIR      63  28  26 CALM      30.09F
SEATTLE WA     PTSUNNY   60  45  57 SW16      30.10R
$$

*** WEATHER ACROSS MANITOBA...SASKATCHEWAN AND ONTARIO ***
                ***ONTARIO***

CITY           SKY/WX    TMP DP  RH WIND       PRES   REMARKS
GERALDTON      CLOUDY    52  36  54 W6        29.89R
THUNDER BAY    PTCLDY    63  45  51 E7        29.87F
SIOUX LOOKOUT  CLOUDY    59  37  44 SE6       29.77F
TORONTO        PTCLDY    64  43  45 SW18G28   30.04R
BIG TROUT LK   CLEAR     36  30  80 N2        29.84S
PICKLE LAKE    MOCLDY    43  34  70 E6        29.82F
DRYDEN         SUNNY     63  37  39 S9        29.74F
KENORA         PTSUNNY   64  39  39 S9        29.69F
$$
                *** MANITOBA***

CITY           SKY/WX    TMP DP  RH WIND       PRES   REMARKS
BRANDON        PTSUNNY   72  36  26 SW16G22   29.54F
DAUPHIN        SUNNY     70  36  28 SW15G21   29.47F
ISLAND LAKE    MOCLDY    43  34  70 E16G22    29.69F
PILOT MOUND      N/A     72  34  25 SW21        N/A
THE PAS        CLOUDY    54  39  58 SE17G25   29.40F
THOMPSON       PTSUNNY   37  32  81 E9        29.57F
WINNIPEG       NOT AVBL
LYNN LAKE      CLOUDY    36  34  93 E14G20    29.45F
CHURCHILL      MOCLDY    27  23  86 SW5       29.79F WCI  21
GILLAM         CLOUDY    32  28  86 SE6       29.75F
$$
                ***SASKATCHEWAN***

CITY           SKY/WX    TMP DP  RH WIND       PRES   REMARKS
ESTEVAN        MOSUNNY   73  28  19 SW21G30   29.55F
KINDERSLEY     MOSUNNY   73  23  15 SW39G52   29.19F
LLOYDMINSTER   CLOUDY    61  39  44 S13       29.04F
PRINCE ALBERT  MOSUNNY   66  37  34 S15G22    29.25F
REGINA         MOSUNNY   77  27  15 SW23G32   29.42F
YORKTON        SUNNY     72  34  25 SW21G30   29.42F



USA.gov is the U.S. government's official web portal to all federal, state and local government web resources and services.